This is the latest recevied weather packets stored in our database for station/object W5CMS-13. If no packets are shown the sender has not sent any weather packets the latest 1 day(s).
| Time | Temp. | Humidity | Pressure | Rain* | Wind** | Luminosity | Snow |
|---|---|---|---|---|---|---|---|
| 1778086216 | 11.67° C | 95% | 1012.9 hPa | 0 mm | - | - | - |
| 1778085018 | 11.11° C | 95% | 1013.9 hPa | 1.52 mm | - | - | - |
| 1778083216 | 11.67° C | 94% | 1012.1 hPa | 1.78 mm | - | - | - |
| 1778082016 | 11.67° C | 90% | 1013.2 hPa | 1.27 mm | - | - | - |
| 1778080816 | 12.22° C | 85% | 1014.6 hPa | 0 mm | - | - | - |
| 1778079616 | 12.22° C | 84% | 1013.2 hPa | 0 mm | - | - | - |
| 1778079016 | 12.22° C | 85% | 1013.4 hPa | 0 mm | - | - | - |
| 1778078416 | 12.22° C | 86% | 1013.3 hPa | 0 mm | - | - | - |
| 1778077816 | 12.22° C | 85% | 1013.7 hPa | 0 mm | - | - | - |
| 1778076616 | 12.22° C | 85% | 1013 hPa | 0 mm | - | - | - |
| 1778075416 | 11.67° C | 86% | 1012.5 hPa | 0 mm | - | - | - |
| 1778074816 | 11.67° C | 86% | 1012.5 hPa | 0 mm | - | - | - |
| 1778073616 | 11.67° C | 85% | 1012.1 hPa | 0 mm | - | - | - |
| 1778073017 | 11.67° C | 84% | 1012 hPa | 0 mm | - | - | - |
| 1778071816 | 11.67° C | 83% | 1011.9 hPa | 0 mm | - | - | - |
| 1778071217 | 12.22° C | 83% | 1011.8 hPa | 0 mm | - | - | - |
| 1778070617 | 12.22° C | 84% | 1011.8 hPa | 0 mm | - | - | - |
| 1778070016 | 12.22° C | 84% | 1011.7 hPa | 0 mm | - | - | - |
| 1778069416 | 12.22° C | 83% | 1011.5 hPa | 0 mm | - | - | - |
| 1778068816 | 12.22° C | 83% | 1011.7 hPa | 0 mm | - | - | - |
| 1778068216 | 12.22° C | 83% | 1011.2 hPa | 0 mm | - | - | - |
| 1778067617 | 12.22° C | 81% | 1011.3 hPa | 0 mm | - | - | - |
| 1778067017 | 12.78° C | 80% | 1010.9 hPa | 0 mm | - | - | - |
| 1778066416 | 12.78° C | 80% | 1011 hPa | 0 mm | - | - | - |
| 1778065816 | 12.78° C | 79% | 1010.9 hPa | 0 mm | - | - | - |
* Rain latest hour (hover to see other rain measurements)
** Current wind speed in m/s (hover to see current wind gust speed)